Time,TemperatureF,DewpointF,PressureIn,WindDirection,WindDirectionDegrees,WindSpeedMPH,WindSpeedGustMPH,Humidity,HourlyPrecipIn,Conditions,Clouds,dailyrainin,SolarRadiationWatts/m^2,SoftwareType,DateUTC
2013-07-25 00:00:00,58.0,50.0,-100.00,West,270,4.0,-999.0,74,-99.99,,,-99.99,0.000000,,2013-07-25 04:00:00,
2013-07-25 00:43:00,58.0,50.0,-100.00,West,270,4.0,-999.0,74,-99.99,,,-99.99,0.000000,,2013-07-25 04:43:00,
2013-07-25 00:53:00,58.0,50.0,-100.00,West,270,4.0,-999.0,74,-99.99,,,-99.99,0.000000,,2013-07-25 04:53:00,
2013-07-25 01:00:00,55.0,49.0,-100.00,WSW,247,1.0,-999.0,80,-99.99,,,-99.99,0.000000,,2013-07-25 05:00:00,
2013-07-25 01:43:00,55.0,49.0,-100.00,WSW,247,1.0,-999.0,80,-99.99,,,-99.99,0.000000,,2013-07-25 05:43:00,
2013-07-25 01:52:00,55.0,49.0,-100.00,WSW,247,1.0,-999.0,80,-99.99,,,-99.99,0.000000,,2013-07-25 05:52:00,
2013-07-25 02:00:00,56.0,49.0,-100.00,ENE,67,2.0,-999.0,77,-99.99,,,-99.99,0.000000,,2013-07-25 06:00:00,
2013-07-25 02:32:00,56.0,49.0,-100.00,ENE,67,2.0,-999.0,77,-99.99,,,-99.99,0.000000,,2013-07-25 06:32:00,
2013-07-25 02:42:00,56.0,49.0,-100.00,ENE,67,2.0,-999.0,77,-99.99,,,-99.99,0.000000,,2013-07-25 06:42:00,
2013-07-25 02:52:00,56.0,49.0,-100.00,ENE,67,2.0,-999.0,77,-99.99,,,-99.99,0.000000,,2013-07-25 06:52:00,
2013-07-25 03:00:00,57.0,49.0,-100.00,East,90,1.0,-999.0,74,-99.99,,,-99.99,0.000000,,2013-07-25 07:00:00,
2013-07-25 03:43:00,57.0,49.0,-100.00,East,90,1.0,-999.0,74,-99.99,,,-99.99,0.000000,,2013-07-25 07:43:00,
2013-07-25 03:53:00,57.0,49.0,-100.00,East,90,1.0,-999.0,74,-99.99,,,-99.99,0.000000,,2013-07-25 07:53:00,
2013-07-25 04:00:00,54.0,49.0,-100.00,ENE,67,1.0,-999.0,80,-99.99,,,-99.99,0.000000,,2013-07-25 08:00:00,
2013-07-25 04:44:00,54.0,49.0,-100.00,ENE,67,1.0,-999.0,80,-99.99,,,-99.99,0.000000,,2013-07-25 08:44:00,
2013-07-25 04:52:00,54.0,49.0,-100.00,ENE,67,1.0,-999.0,80,-99.99,,,-99.99,0.000000,,2013-07-25 08:52:00,
2013-07-25 05:00:00,54.0,49.0,-100.00,East,90,1.0,-999.0,83,-99.99,,,-99.99,0.000000,,2013-07-25 09:00:00,
2013-07-25 05:43:00,54.0,49.0,-100.00,East,90,1.0,-999.0,83,-99.99,,,-99.99,0.000000,,2013-07-25 09:43:00,
2013-07-25 05:53:00,54.0,49.0,-100.00,East,90,1.0,-999.0,83,-99.99,,,-99.99,0.000000,,2013-07-25 09:53:00,
2013-07-25 06:00:00,54.0,49.0,-100.00,East,90,2.0,-999.0,84,-99.99,,,-99.99,0.000000,,2013-07-25 10:00:00,
2013-07-25 06:43:00,54.0,49.0,-100.00,East,90,2.0,-999.0,84,-99.99,,,-99.99,0.000000,,2013-07-25 10:43:00,
2013-07-25 06:53:00,54.0,49.0,-100.00,East,90,2.0,-999.0,84,-99.99,,,-99.99,0.000000,,2013-07-25 10:53:00,
2013-07-25 07:00:00,53.0,49.0,-100.00,East,90,1.0,-999.0,86,-99.99,,,-99.99,5.800000,,2013-07-25 11:00:00,
2013-07-25 07:43:00,53.0,49.0,-100.00,East,90,1.0,-999.0,86,-99.99,,,-99.99,5.800000,,2013-07-25 11:43:00,
2013-07-25 07:52:00,53.0,49.0,-100.00,East,90,1.0,-999.0,86,-99.99,,,-99.99,5.800000,,2013-07-25 11:52:00,
2013-07-25 08:00:00,56.0,50.0,-100.00,ESE,112,1.0,-999.0,83,-99.99,,,-99.99,119.480003,,2013-07-25 12:00:00,
2013-07-25 08:45:00,56.0,50.0,-100.00,ESE,112,1.0,-999.0,83,-99.99,,,-99.99,119.480003,,2013-07-25 12:45:00,
2013-07-25 08:53:00,56.0,50.0,-100.00,ESE,112,1.0,-999.0,83,-99.99,,,-99.99,119.480003,,2013-07-25 12:53:00,
2013-07-25 09:00:00,61.0,53.0,-100.00,SSE,157,1.0,-999.0,74,-99.99,,,-99.99,270.279999,,2013-07-25 13:00:00,
2013-07-25 09:43:00,61.0,53.0,-100.00,SSE,157,1.0,-999.0,74,-99.99,,,-99.99,270.279999,,2013-07-25 13:43:00,
2013-07-25 09:53:00,61.0,53.0,-100.00,SSE,157,1.0,-999.0,74,-99.99,,,-99.99,270.279999,,2013-07-25 13:53:00,
2013-07-25 10:00:00,65.0,53.0,-100.00,SSW,202,3.0,-999.0,66,-99.99,,,-99.99,429.200012,,2013-07-25 14:00:00,
2013-07-25 10:43:00,65.0,53.0,-100.00,SSW,202,3.0,-999.0,66,-99.99,,,-99.99,429.200012,,2013-07-25 14:43:00,
2013-07-25 10:53:00,65.0,53.0,-100.00,SSW,202,3.0,-999.0,66,-99.99,,,-99.99,429.200012,,2013-07-25 14:53:00,
2013-07-25 11:00:00,69.0,53.0,-100.00,SSW,202,4.0,-999.0,57,-99.99,,,-99.99,577.679993,,2013-07-25 15:00:00,
2013-07-25 11:44:00,69.0,53.0,-100.00,SSW,202,4.0,-999.0,57,-99.99,,,-99.99,577.679993,,2013-07-25 15:44:00,
2013-07-25 11:53:00,69.0,53.0,-100.00,SSW,202,4.0,-999.0,57,-99.99,,,-99.99,577.679993,,2013-07-25 15:53:00,
2013-07-25 12:00:00,71.0,51.0,-100.00,SW,225,4.0,-999.0,49,-99.99,,,-99.99,726.159973,,2013-07-25 16:00:00,
2013-07-25 12:45:00,71.0,51.0,-100.00,SW,225,4.0,-999.0,49,-99.99,,,-99.99,726.159973,,2013-07-25 16:45:00,
2013-07-25 12:53:00,71.0,51.0,-100.00,SW,225,4.0,-999.0,49,-99.99,,,-99.99,726.159973,,2013-07-25 16:53:00,
2013-07-25 13:00:00,72.0,50.0,-100.00,South,180,4.0,-999.0,45,-99.99,,,-99.99,762.119995,,2013-07-25 17:00:00,
2013-07-25 13:43:00,72.0,50.0,-100.00,South,180,4.0,-999.0,45,-99.99,,,-99.99,762.119995,,2013-07-25 17:43:00,
2013-07-25 13:53:00,72.0,50.0,-100.00,South,180,4.0,-999.0,45,-99.99,,,-99.99,762.119995,,2013-07-25 17:53:00,
2013-07-25 14:00:00,73.0,49.0,-100.00,SSW,202,3.0,-999.0,43,-99.99,,,-99.99,618.280029,,2013-07-25 18:00:00,
2013-07-25 14:43:00,73.0,49.0,-100.00,SSW,202,3.0,-999.0,43,-99.99,,,-99.99,618.280029,,2013-07-25 18:43:00,
2013-07-25 14:52:00,73.0,49.0,-100.00,SSW,202,3.0,-999.0,43,-99.99,,,-99.99,618.280029,,2013-07-25 18:52:00,
2013-07-25 15:00:00,75.0,50.0,-100.00,SW,225,4.0,-999.0,41,-99.99,,,-99.99,779.520020,,2013-07-25 19:00:00,
2013-07-25 15:43:00,75.0,50.0,-100.00,SW,225,4.0,-999.0,41,-99.99,,,-99.99,779.520020,,2013-07-25 19:43:00,
2013-07-25 15:53:00,75.0,50.0,-100.00,SW,225,4.0,-999.0,41,-99.99,,,-99.99,779.520020,,2013-07-25 19:53:00,
2013-07-25 16:00:00,74.0,51.0,-100.00,SW,225,5.0,-999.0,43,-99.99,,,-99.99,551.000000,,2013-07-25 20:00:00,
2013-07-25 16:43:00,74.0,51.0,-100.00,SW,225,5.0,-999.0,43,-99.99,,,-99.99,551.000000,,2013-07-25 20:43:00,
2013-07-25 16:54:00,74.0,51.0,-100.00,SW,225,5.0,-999.0,43,-99.99,,,-99.99,551.000000,,2013-07-25 20:54:00,
2013-07-25 17:00:00,74.0,52.0,-100.00,West,270,7.0,-999.0,46,-99.99,,,-99.99,533.599976,,2013-07-25 21:00:00,
2013-07-25 17:44:00,74.0,52.0,-100.00,West,270,7.0,-999.0,46,-99.99,,,-99.99,533.599976,,2013-07-25 21:44:00,
2013-07-25 17:52:00,74.0,52.0,-100.00,West,270,7.0,-999.0,46,-99.99,,,-99.99,533.599976,,2013-07-25 21:52:00,
2013-07-25 18:00:00,74.0,52.0,-100.00,WSW,247,6.0,-999.0,46,-99.99,,,-99.99,523.159973,,2013-07-25 22:00:00,
2013-07-25 18:43:00,74.0,52.0,-100.00,WSW,247,6.0,-999.0,46,-99.99,,,-99.99,523.159973,,2013-07-25 22:43:00,
2013-07-25 18:53:00,74.0,52.0,-100.00,WSW,247,6.0,-999.0,46,-99.99,,,-99.99,523.159973,,2013-07-25 22:53:00,
2013-07-25 19:00:00,74.0,51.0,-100.00,WSW,247,5.0,-999.0,45,-99.99,,,-99.99,375.839996,,2013-07-25 23:00:00,
2013-07-25 19:43:00,74.0,51.0,-100.00,WSW,247,5.0,-999.0,45,-99.99,,,-99.99,375.839996,,2013-07-25 23:43:00,
2013-07-25 19:52:00,74.0,51.0,-100.00,WSW,247,5.0,-999.0,45,-99.99,,,-99.99,375.839996,,2013-07-25 23:52:00,
2013-07-25 20:00:00,71.0,50.0,-100.00,WSW,247,4.0,-999.0,47,-99.99,,,-99.99,100.919998,,2013-07-26 00:00:00,
2013-07-25 20:43:00,71.0,50.0,-100.00,WSW,247,4.0,-999.0,47,-99.99,,,-99.99,100.919998,,2013-07-26 00:43:00,
2013-07-25 20:52:00,71.0,50.0,-100.00,WSW,247,4.0,-999.0,47,-99.99,,,-99.99,100.919998,,2013-07-26 00:52:00,
2013-07-25 21:00:00,68.0,51.0,-100.00,WSW,247,3.0,-999.0,54,-99.99,,,-99.99,29.000000,,2013-07-26 01:00:00,
2013-07-25 21:43:00,68.0,51.0,-100.00,WSW,247,3.0,-999.0,54,-99.99,,,-99.99,29.000000,,2013-07-26 01:43:00,
2013-07-25 21:52:00,68.0,51.0,-100.00,WSW,247,3.0,-999.0,54,-99.99,,,-99.99,29.000000,,2013-07-26 01:52:00,
2013-07-25 22:00:00,64.0,50.0,-100.00,WSW,247,1.0,-999.0,62,-99.99,,,-99.99,0.000000,,2013-07-26 02:00:00,
2013-07-25 22:43:00,64.0,50.0,-100.00,WSW,247,1.0,-999.0,62,-99.99,,,-99.99,0.000000,,2013-07-26 02:43:00,
2013-07-25 22:52:00,64.0,50.0,-100.00,WSW,247,1.0,-999.0,62,-99.99,,,-99.99,0.000000,,2013-07-26 02:52:00,
2013-07-25 23:00:00,61.0,51.0,-100.00,WSW,247,1.0,-999.0,69,-99.99,,,-99.99,0.000000,,2013-07-26 03:00:00,
2013-07-25 23:44:00,61.0,51.0,-100.00,WSW,247,1.0,-999.0,69,-99.99,,,-99.99,0.000000,,2013-07-26 03:44:00,
2013-07-25 23:53:00,61.0,51.0,-100.00,WSW,247,1.0,-999.0,69,-99.99,,,-99.99,0.000000,,2013-07-26 03:53:00,